Miscellaneous Local Product
Issued by NWS Hastings, NE

Home | Current Version | Previous Version | Text Only | Print | Product List | Glossary Off
Versions: 1 2 3 4 5 6 7 8 9 10 11 12 13 14 15 16 17 18 19 20 21 22 23 24 25 26 27 28 29 30 31 32 33 34 35 36 37 38 39 40 41 42 43 44 45 46 47 48 49 50

000
AXUS43 KGID 172302
MISGRI

GID CWA HOURLY WEATHER ROUNDUP
NATIONAL WEATHER SERVICE HASTINGS NE
600 PM CDT TUE APR 17 2018

NOTE: "FAIR" INDICATES FEW OR NO CLOUDS BELOW 12,000 FEET WITH NO
SIGNIFICANT WEATHER AND/OR OBSTRUCTIONS TO VISIBILITY.

...SOUTH CENTRAL NEBRASKA...

CITY           SKY/WX    TMP DP  RH WIND       PRES   REMARKS
GRAND ISLAND   SUNNY     57  35  43 E23G31    29.62F
KEARNEY        SUNNY     59  36  42 E25G32    29.54F
HASTINGS       SUNNY     59  36  42 E17       29.58F
ORD            SUNNY     56  33  42 SE16G30   29.58F
YORK             N/A     57  36  44 SE17      29.66R
AURORA         SUNNY     57  33  40 SE18G25   29.63S
LEXINGTON      SUNNY     61  34  36 E24G30    29.49F
HOLDREGE       SUNNY     62  37  40 SE26G32   29.50F
HEBRON         SUNNY     65  37  35 SE10G23   29.61R

...NEBRASKA PANHANDLE...

CITY           SKY/WX    TMP DP  RH WIND       PRES   REMARKS
CHADRON        CLOUDY    48  34  58 N23G31    29.72R
ALLIANCE       LGT RAIN  49  39  68 NW15      29.67R
SCOTTSBLUFF    LGT RAIN  48  41  76 N16G23    29.70R
SIDNEY         CLOUDY    54  26  34 NW28G41   29.69R

...WESTERN AND NORTH CENTRAL NEBRASKA...

CITY           SKY/WX    TMP DP  RH WIND       PRES   REMARKS
VALENTINE      CLOUDY    44  31  60 NE14      29.74R
AINSWORTH      MOSUNNY   43  35  73 NE15      29.69R
ONEILL         SUNNY     55  34  45 E21       29.64F
BROKEN BOW     SUNNY     55  36  48 E23G35    29.55F
IMPERIAL       PTSUNNY   65  33  30 N16G29    29.52R
NORTH PLATTE   SUNNY     60  37  42 E14G36    29.57R
MCCOOK         SUNNY     67  36  31 SE26G35   29.42F

...EASTERN NEBRASKA...

CITY           SKY/WX    TMP DP  RH WIND       PRES   REMARKS
NORFOLK        SUNNY     56  30  37 E17G28    29.67S
SO SIOUX CITY  SUNNY     51  32  48 E17       29.74R
TEKAMAH        SUNNY     57  33  40 E21G26    29.71F
COLUMBUS       SUNNY     57  32  38 E15       29.68R
ALBION         SUNNY     57  32  38 SE21G28   29.64F
OMAHA EPPLEY   MOSUNNY   59  31  34 E13G23    29.71S
MILLARD        SUNNY     59  33  37 E9        29.69S
LINCOLN        SUNNY     59  32  36 SE17      29.68F
NEBRASKA CITY  SUNNY     58  34  39 SE18      29.67F
BEATRICE       SUNNY     62  37  38 E14G21    29.63F
FALLS CITY     SUNNY     62  34  35 SE16G25   29.65F

...NORTHERN KANSAS...

CITY           SKY/WX    TMP DP  RH WIND       PRES   REMARKS
GOODLAND       CLOUDY    67  29  24 NW53G69   29.47R HAZE
HILL CITY      SUNNY     74  36  25 E23G37    29.42F
NORTON         CLEAR     70  37  30 E21G32    29.44F
PHILLIPSBURG   SUNNY     72  36  26 E25G32    29.47F
SMITH CENTER   SUNNY     68  36  30 E23G33    29.49F
BELOIT         SUNNY     72  39  30 E17G24    29.51F
HAYS           SUNNY     78  38  23 E21G29    29.42F
RUSSELL        SUNNY     79  38  22 E21G30    29.42F
CONCORDIA      SUNNY     69  38  32 E18G28    29.54F
SALINA         SUNNY     83  40  21 SE17      29.48F
TOPEKA         SUNNY     70  44  39 E13       29.61F



USA.gov is the U.S. government's official web portal to all federal, state and local government web resources and services.